WESTFORD NEEDLES, 18962

Orbit data source: Space-Track

WESTFORD NEEDLES, 18962 is space debris in LEO originally from a launch on Thu, 09 May 1963 UTC launched from the Air Force Western Test Range (AFWTR). Debris objects in space refer to the collection of defunct objects orbiting the Earth. Examples of debris include non-operational satellites, rocket bodies, and fragments generated from explosions, collisions, or faulty payload assembly.

Loading next visibility...
Identifier
18962, 1963-014DN
Orbit
LEO
Country
Flag of USUS
Related business
Manufacturer
Unknown
Mission
Spacecraft
Bus & Motor
Unknown
Mass
Unknown
Launch date (UTC)
1963-05-09 (63 years ago)
Launch vehicle
Unknown
Launch site
Air Force Western Test Range (AFWTR)
Object type
Payload
Rocket body
Debris
Shape & HBR
Unknown shape, 0.2 m
Radar Cross Section
Medium (>0.1 m² and <1 m²)

Expand to show TLE details & history
Last TLE update: 6 days ago

TLE from 6 days ago
0 WESTFORD NEEDLES
1 18962U 63014DN  25308.37993489  .00002613  00000-0  40899+0 0  9991
2 18962  86.5006 182.3060 1388338 136.3490 235.6029  8.76546518182832
Epoch: 2025-11-04T09:07Z
TLE epoch observation values (Epoch: 2025-11-04T09:07:06.374Z)
Latitude
-0.00003°
Longitude
1.66165°
Altitude
4,455.443 km
Speed
5.787 km/s
True Right ascension
12h 09m 13s
True Declination
0° 00' 00"
Sunlit
Object was in daylight at epoch
Visualization orbit readout
Latitude
Unknown
Longitude
Unknown
Altitude
Unknown
Speed
Unknown
Apparent Right ascension
Unknown
Apparent Declination
Unknown
Sunlit
N/A
Visualization observer readout
Local Sidereal Time
18:29:06
Azimuth
Unknown
Elevation
Unknown
Doppler factor
Unknown
Orbital elements
Apogee altitude
4,934.934 km
Perigee altitude
2,176.61 km
Semi-major axis
9,933.909 km
Eccentricity
0.13883
Inclination
86.5006°
RAAN
182.306°
Arg. of periapsis
136.349°
True anomaly
223.7354°
Mean anomaly
235.6029°
Eccentric anomaly
229.5497°
Mean motion
2.19211 °/min
Orbital period
164.23 mins
BSTAR
0.40899
Loading maneuver chart data...
Computing Atmospheric mass density...

Documentation

Showing up to 5 results
|